Weather History for Huntsville Madison, AL

Change the Weather History Date:

Saturday, February 16, 2013

  Actual Average (KHSV) Record (KHSV)
Temperature  
Mean Temperature 32 °F 46 °F  
Max Temperature 37 °F 56 °F 77 °F (1945)
Min Temperature 26 °F 36 °F 2 °F (1958)
Degree Days  
Heating Degree Days 34 19  
Month to date heating degree days 333  
Since 1 July heating degree days 2243  
Cooling Degree Days 0 0  
Month to date cooling degree days 0  
Year to date cooling degree days 0  
Moisture  
Dew Point 15 °F    
Average Humidity 50    
Maximum Humidity 74    
Minimum Humidity 30    
Precipitation  
Precipitation 0.00 in 0.18 in 2.63 in (1903)
Month to date precipitation 2.71  
Year to date precipitation 7.60  
Snow  
Snow 0.00 in - - ()
Month to date snowfall  
Since 1 July snowfall  
Snow Depth -    
Sea Level Pressure  
Sea Level Pressure 30.14 in    
Wind  
Wind Speed 8 mph (NNW)    
Max Wind Speed 17 mph    
Max Gust Speed 22 mph    
Visibility 10 miles    
Events      
T = Trace of Precipitation, MM = Missing Value Source: NWS Daily Summary

Daily Weather History Graph

Daily Weather History Graph

Search for Another Location

Airport:

Trip Planner

Search our weather history database for the weather conditions in past years. The results will help you decide how hot, cold, wet, or windy it might be!

Date:

Astronomy

Feb. 16, 2013 Rise Set
Actual Time 6:30 AM CST 5:30 PM CST
Civil Twilight 6:04 AM CST 5:56 PM CST
Nautical Twilight 5:35 AM CST 6:25 PM CST
Astronomical Twilight 5:05 AM CST 6:55 PM CST
Moon 10:00 AM CST (2/16) No Moon Set
Length of Visible Light 11h 51m
Length of Day
10h 59m
Waxing Crescent, 39% of the Moon is Illuminated
Feb 16
Waxing Crescent
Feb 17
First Quarter
Feb 25
Full
Mar 4
Last Quarter
Mar 11
New

Hourly Weather History & Observations

Time (CST) Temp. Windchill Dew Point Humidity Pressure Visibility Wind Dir Wind Speed Gust Speed Precip Events Conditions
12:15 AM 35.6 °F 29.2 °F 19.4 °F 52% 30.12 in 10.0 mi North 8.1 mph - N/A   Overcast
12:35 AM 35.6 °F 31.7 °F 21.2 °F 56% 30.12 in 10.0 mi North 4.6 mph - N/A   Overcast
12:55 AM 35.6 °F 28.0 °F 21.2 °F 56% 30.12 in 10.0 mi North 10.4 mph 16.1 mph N/A   Overcast
1:15 AM 35.6 °F 27.5 °F 19.4 °F 52% 30.11 in 10.0 mi North 11.5 mph - N/A   Mostly Cloudy
1:35 AM 33.8 °F 26.4 °F 21.2 °F 60% 30.11 in 10.0 mi North 9.2 mph - N/A   Mostly Cloudy
1:55 AM 33.8 °F 26.4 °F 19.4 °F 56% 30.11 in 10.0 mi North 9.2 mph - N/A   Mostly Cloudy
2:15 AM 33.8 °F 25.8 °F 19.4 °F 56% 30.11 in 10.0 mi North 10.4 mph - N/A   Mostly Cloudy
2:35 AM 33.8 °F 26.4 °F 19.4 °F 56% 30.11 in 10.0 mi North 9.2 mph - N/A   Overcast
2:55 AM 32.0 °F 24.8 °F 19.4 °F 60% 30.10 in 10.0 mi North 8.1 mph 16.1 mph N/A   Overcast
3:15 AM 32.0 °F 23.6 °F 19.4 °F 60% 30.11 in 10.0 mi North 10.4 mph - N/A   Scattered Clouds
3:35 AM 32.0 °F 25.6 °F 19.4 °F 60% 30.10 in 10.0 mi North 6.9 mph - N/A   Scattered Clouds
3:55 AM 32.0 °F 24.8 °F 19.4 °F 60% 30.10 in 10.0 mi NNW 8.1 mph - N/A   Clear
4:15 AM 30.2 °F 21.9 °F 19.4 °F 64% 30.10 in 10.0 mi North 9.2 mph - N/A   Clear
4:35 AM 30.2 °F 23.4 °F 19.4 °F 64% 30.11 in 10.0 mi NNW 6.9 mph - N/A   Scattered Clouds
4:55 AM 30.2 °F 22.6 °F 19.4 °F 64% 30.12 in 10.0 mi NNW 8.1 mph - N/A   Mostly Cloudy
5:15 AM 30.2 °F 22.6 °F 19.4 °F 64% 30.11 in 10.0 mi NNW 8.1 mph - N/A   Scattered Clouds
5:35 AM 30.2 °F 23.4 °F 19.4 °F 64% 30.11 in 10.0 mi North 6.9 mph - N/A   Clear
5:55 AM 28.4 °F 22.2 °F 19.4 °F 69% 30.12 in 10.0 mi NNW 5.8 mph - N/A   Clear
6:15 AM 28.4 °F 23.3 °F 19.4 °F 69% 30.11 in 10.0 mi North 4.6 mph - N/A   Clear
6:35 AM 26.6 °F 21.2 °F 19.4 °F 74% 30.12 in 10.0 mi NNW 4.6 mph - N/A   Clear
6:55 AM 28.4 °F 22.2 °F 19.4 °F 69% 30.13 in 10.0 mi NNW 5.8 mph - N/A   Clear
7:15 AM 28.4 °F 22.2 °F 19.4 °F 69% 30.13 in 10.0 mi NNW 5.8 mph - N/A   Clear
7:35 AM 30.2 °F 23.4 °F 19.4 °F 64% 30.13 in 10.0 mi NW 6.9 mph - N/A   Clear
7:55 AM 30.2 °F 21.9 °F 17.6 °F 60% 30.14 in 10.0 mi North 9.2 mph - N/A   Clear
8:15 AM 32.0 °F 23.0 °F 17.6 °F 55% 30.14 in 10.0 mi NNW 11.5 mph - N/A   Clear
8:35 AM 32.0 °F 23.0 °F 17.6 °F 55% 30.14 in 10.0 mi North 11.5 mph - N/A   Clear
8:55 AM 32.0 °F 23.6 °F 14.0 °F 48% 30.14 in 10.0 mi North 10.4 mph 17.3 mph N/A   Clear
9:15 AM 33.8 °F 24.3 °F 14.0 °F 44% 30.14 in 10.0 mi North 13.8 mph - N/A   Clear
9:35 AM 33.8 °F 23.2 °F 14.0 °F 44% 30.14 in 10.0 mi North 17.3 mph 20.7 mph N/A   Clear
12:15 PM 37.4 °F 28.5 °F 8.6 °F 30% 30.14 in 10.0 mi North 15.0 mph - N/A   Mostly Cloudy
12:35 PM 37.4 °F 29.3 °F 8.6 °F 30% 30.13 in 10.0 mi North 12.7 mph 19.6 mph N/A   Scattered Clouds
12:55 PM 35.6 °F 26.2 °F 8.6 °F 33% 30.12 in 10.0 mi North 15.0 mph 19.6 mph N/A   Overcast
1:15 PM 37.4 °F 28.9 °F 8.6 °F 30% 30.12 in 10.0 mi NNW 13.8 mph 19.6 mph N/A   Mostly Cloudy
1:35 PM 37.4 °F 29.8 °F 8.6 °F 30% 30.12 in 10.0 mi NW 11.5 mph 20.7 mph N/A   Scattered Clouds
1:55 PM 37.4 °F 28.9 °F 8.6 °F 30% 30.12 in 10.0 mi NW 13.8 mph 18.4 mph N/A   Scattered Clouds
2:15 PM 37.4 °F 29.3 °F 12.2 °F 36% 30.12 in 10.0 mi North 12.7 mph - N/A   Scattered Clouds
2:35 PM 37.4 °F 28.2 °F 12.2 °F 36% 30.11 in 10.0 mi North 16.1 mph 21.9 mph N/A   Scattered Clouds
2:55 PM 35.6 °F 26.6 °F 14.0 °F 41% 30.12 in 10.0 mi North 13.8 mph 18.4 mph N/A   Scattered Clouds
3:15 PM 35.6 °F 27.1 °F 12.2 °F 38% 30.12 in 10.0 mi WNW 12.7 mph 19.6 mph N/A   Scattered Clouds
3:35 PM 35.6 °F 28.6 °F 14.0 °F 41% 30.12 in 10.0 mi WNW 9.2 mph - N/A   Scattered Clouds
3:55 PM 33.8 °F 27.0 °F 17.6 °F 52% 30.12 in 7.0 mi WNW 8.1 mph - N/A   Scattered Clouds
4:15 PM 33.8 °F 23.9 °F 17.6 °F 52% 30.13 in 10.0 mi NNW 15.0 mph 19.6 mph N/A   Mostly Cloudy
4:35 PM 33.8 °F 25.3 °F 17.6 °F 52% 30.13 in 10.0 mi North 11.5 mph - N/A   Scattered Clouds
4:55 PM 33.8 °F 26.4 °F 19.4 °F 56% 30.14 in 10.0 mi North 9.2 mph - N/A   Scattered Clouds
5:15 PM 33.8 °F 25.8 °F 14.0 °F 44% 30.14 in 10.0 mi WNW 10.4 mph - N/A   Scattered Clouds
5:35 PM 33.8 °F 28.6 °F 14.0 °F 44% 30.14 in 10.0 mi NNW 5.8 mph - N/A   Scattered Clouds
5:55 PM 32.0 °F 28.7 °F 17.6 °F 55% 30.14 in 10.0 mi NNW 3.5 mph - N/A   Clear
6:15 PM 32.0 °F 24.8 °F 15.8 °F 51% 30.15 in 10.0 mi NNW 8.1 mph - N/A   Scattered Clouds
6:35 PM 32.0 °F 26.4 °F 12.2 °F 44% 30.16 in 10.0 mi NW 5.8 mph - N/A   Scattered Clouds
6:55 PM 32.0 °F 26.4 °F 10.4 °F 41% 30.17 in 10.0 mi NNW 5.8 mph - N/A   Scattered Clouds
7:15 PM 32.0 °F 27.5 °F 10.4 °F 41% 30.17 in 10.0 mi NW 4.6 mph - N/A   Clear
7:35 PM 30.2 °F 25.4 °F 10.4 °F 44% 30.18 in 10.0 mi NW 4.6 mph - N/A   Clear
7:55 PM 30.2 °F 24.3 °F 10.4 °F 44% 30.19 in 10.0 mi NW 5.8 mph - N/A   Clear
8:15 PM 30.2 °F 25.4 °F 10.4 °F 44% 30.19 in 10.0 mi NW 4.6 mph - N/A   Clear
8:35 PM 30.2 °F 24.3 °F 8.6 °F 40% 30.19 in 10.0 mi NW 5.8 mph - N/A   Clear
8:55 PM 28.4 °F 23.3 °F 10.4 °F 47% 30.20 in 10.0 mi NW 4.6 mph - N/A   Clear
9:15 PM 30.2 °F 24.3 °F 8.6 °F 40% 30.21 in 10.0 mi NW 5.8 mph - N/A   Clear
9:35 PM 28.4 °F 23.3 °F 8.6 °F 43% 30.21 in 10.0 mi NW 4.6 mph - N/A   Clear
9:55 PM 28.4 °F - 12.2 °F 51% 30.21 in 10.0 mi Calm Calm - N/A   Clear
10:15 PM 28.4 °F - 8.6 °F 43% 30.22 in 10.0 mi Calm Calm - N/A   Clear
10:35 PM 26.6 °F - 10.4 °F 51% 30.21 in 10.0 mi Calm Calm - N/A   Clear
10:55 PM 26.6 °F - 12.2 °F 55% 30.21 in 10.0 mi Calm Calm - N/A   Clear
11:15 PM 26.6 °F 22.6 °F 10.4 °F 51% 30.21 in 10.0 mi West 3.5 mph - N/A   Clear
11:35 PM 26.6 °F 19.1 °F 10.4 °F 51% 30.22 in 10.0 mi West 6.9 mph - N/A   Clear
11:55 PM 28.4 °F 22.2 °F 8.6 °F 43% 30.22 in 10.0 mi West 5.8 mph - N/A   Clear